Location: Waldport
(44.4270°N, 124.0680°W)
Time: 02:53:49
(UTC-07:00)

Helios 1B rocket - Pass Details

Date: 23 June 2018
Orbit: 575 x 586 km, 98.2° (Epoch: 20 July)

Event Time Altitude Azimuth Distance (km) Brightness Sun altitude
Rises 22:38:10 0° 19° (NNE) 2,803 6.4 -12.9°
Reaches altitude 10° 22:40:25 10° 26° (NNE) 1,898 5.4 -13.1°
Maximum altitude 22:44:21 44° 100° (E) 802 2.8 -13.5°
Enters shadow 22:46:41 22° 162° (SSE) 1,295 3.6 -13.8°
